Location: Newark
(13.6797°N, 8.5297°E)
Time: 07:01:01
(UTC+00:00)

SR - Pass Details

Date: 02 February 2020
Orbit: 575 x 881 km, 66.7° (Epoch: 20 February)

Event Time Altitude Azimuth Distance (km) Brightness Sun altitude
Rises 04:43:46 0° 4° (N) 3,183 ? -17.0°
Reaches altitude 10° 04:47:06 10° 25° (NNE) 2,191 ? -16.2°
Maximum altitude 04:50:09 16° 63° (ENE) 1,745 ? -15.5°
Drops below altitude 10° 04:53:03 10° 101° (ESE) 2,069 ? -14.8°
Sets 04:56:03 0° 123° (ESE) 2,921 ? -14.1°
